This demonstration page uses our WeatherBlox Daily Observations layout. Learn more.

Left ArrowRight Arrow

41.55636, -103.73856

Hourly Observations for September 26, 2021

Temp ( °F °C ) Dew Point ( °F °C ) Humidity (%) Winds ( mph kmh ) Pressure ( in mb ) Visibility ( mi km ) Precip ( " mm )
12:58 am 00:58 Clear 64 17.5 25 -3.9 23 23 SW 5 7 29.81 1009 10 16 N/A
1:58 am 01:58 Clear 63 17.2 25 -3.8 24 24 SW 5 7 29.81 1009 10 16 N/A
2:58 am 02:58 Clear 59 14.8 24 -4.3 27 27 SSW 12 19 29.79 1009 10 16 N/A
3:58 am 03:58 Clear 60 15.7 24 -4.7 24 24 WNW 9 15 29.80 1009 10 16 N/A
4:58 am 04:58 Clear 55 13 24 -4.5 30 30 NW 9 15 29.81 1010 10 16 N/A
5:58 am 05:58 Clear 55 12.7 24 -4.3 31 31 WSW 10 17 29.82 1010 10 16 N/A
6:58 am 06:58 Sunny 58 14.5 25 -3.8 28 28 W 10 17 29.85 1011 10 16 N/A
7:58 am 07:58 Sunny 65 18.1 26 -3.2 23 23 W 12 19 29.88 1012 10 16 N/A
8:58 am 08:58 Sunny 72 22.4 25 -4 17 17 WNW 21 33 29.85 1011 10 16 N/A
9:58 am 09:58 Sunny 77 24.9 25 -4 14 14 W 20 31 29.87 1011 10 16 N/A
10:58 am 10:58 Sunny 80 26.9 25 -3.8 13 13 NW 16 26 29.86 1011 10 16 N/A
11:58 am 11:58 Sunny 83 28.4 26 -3.5 12 12 NNW 10 17 29.85 1011 10 16 N/A
12:58 pm 12:58 Sunny 85 29.5 25 -3.8 11 11 N 3 6 29.82 1010 10 16 N/A
1:58 pm 13:58 Sunny 85 29.5 26 -3.5 11 11 NE 8 13 29.80 1009 10 16 N/A
2:58 pm 14:58 Sunny 87 30.4 25 -4 10 10 NW 12 19 29.80 1009 10 16 N/A
3:58 pm 15:58 Sunny 87 30.5 25 -3.9 10 10 NW 10 17 29.80 1009 10 16 N/A
4:58 pm 16:58 Sunny 86 29.8 25 -3.7 11 11 N 7 11 29.80 1009 10 16 N/A
5:58 pm 17:58 Sunny 84 28.9 27 -2.8 12 12 NE 3 6 29.81 1010 10 16 N/A
6:58 pm 18:58 Clear 77 25.1 25 -4 14 14 E 6 9 29.82 1010 10 16 N/A
7:58 pm 19:58 Clear 76 24.4 24 -4.3 15 15 SE 5 7 29.82 1010 10 16 N/A
8:58 pm 20:58 Clear 65 18.6 27 -3 23 23 S 6 9 29.83 1010 10 16 N/A
9:58 pm 21:58 Clear 61 16.3 27 -2.8 27 27 SSW 7 11 29.85 1011 10 16 N/A
10:58 pm 22:58 Clear 67 19.2 27 -3 22 22 SSW 7 11 29.83 1010 10 16 N/A
11:58 pm 23:58 Clear 65 18.1 27 -2.7 24 24 SSW 7 11 29.84 1010 10 16 N/A

Powered by AerisWeather